Tracking 22879 objects as of 23-Apr-2021
HD Live streaming from Space Station
objects crossing your sky now

ARIANE 5 DEB (SYLDA)

Track ARIANE 5 DEB (SYLDA) now!
10-day predictions


NORAD ID: 40877
Int'l Code: 2015-039D
Perigee: 281.5 km
Apogee: 24,716.0 km
Inclination: 5.0 °
Period: 429.9 minutes
Semi major axis: 18869 km
RCS: Unknown
Launch date: August 20, 2015
Source: France (FR)
Launch site: FRENCH GUIANA (FRGUI)

Note: This is SATELLITE DEBRIS
aabbcc
Your satellite tracking list
Your tracking list is empty




NASA's NSSDC Master Catalog

Two Line Element Set (TLE):
1 40877U 15039D   21112.26065882  .00007457  00000-0  17870-2 0  9996
2 40877   4.9965  50.9636 6474506 271.1920  20.9470  3.34929012 59148
Source of the keplerian elements: AFSPC